Dewpoint
18 14 16 19 22 24 25 25 26 28 29 30 29 30 30 31 30 29 30 30 32 34 35 35 36 41 42 44 46 46 55 62 64 64 64 62 63 61 62 64 65 65 65 64
16 15 18 18 20 20 21 20 21 24 25 24 25 27 28 29 30 30 30 31 31 32 34 34 37 40 45 47 54 55 61 64 64 64 62 62 61 60 61 62 64 64 64 64
15 15 17 15 16 18 20 19 21 23 24 21 21 20 21 21 23 25 25 30 31 32 31 31 34 41 47 53 58 61 63 64 64 63 62 60 60 60 59 59 60 62 64 64
11 12 12 17 14 14 14 20 21 21 20 18 17 16 17 16 16 16 19 20 23 28 30 34 35 39 51 55 61 63 64 64 64 63 61 59 58 58 58 59 60 61 63 63
11 11 10 11 13 17 13 16 18 20 21 18 18 16 13 17 15 18 21 19 23 23 26 29 33 41 53 60 62 63 64 64 63 62 61 60 59 58 59 59 60 60 61 62
12 11 10 9 8 9 15 13 19 19 19 17 17 17 12 13 14 15 16 23 23 26 30 32 39 55 59 61 63 63 64 62 62 61 61 59 59 58 59 58 59 59 60 60
14 13 14 12 10 12 11 9 13 13 16 15 18 16 14 19 22 21 20 21 24 26 26 43 54 57 59 61 62 62 63 61 61 60 59 59 59 59 58 58 58 58 58 59
24 20 16 22 13 10 8 8 12 10 16 11 17 16 16 19 19 17 17 18 22 25 28 44 55 58 60 62 62 61 61 60 60 60 59 58 59 59 59 58 59 59 59 59
24 25 24 21 18 17 17 8 8 6 12 11 17 18 18 19 21 20 20 19 20 25 33 52 57 59 61 61 61 61 61 60 60 59 59 59 59 59 59 58 59 59 59 59
25 19 25 23 24 18 14 19 7 9 7 10 15 16 17 19 15 15 17 21 23 28 47 56 59 60 61 61 61 60 60 59 59 59 59 59 59 59 59 60 59 59 59 60
29 25 22 25 21 14 19 23 23 10 11 12 12 16 21 20 21 21 23 23 30 38 55 58 60 61 61 61 61 60 60 59 59 58 58 58 59 59 59 59 59 59 59 59
32 30 26 24 23 21 21 25 23 16 13 11 16 13 17 21 19 20 22 25 49 52 55 59 60 60 60 61 60 60 60 59 58 58 58 58 59 58 59 59 60 58 59 59
35 27 22 20 26 30 27 27 27 31 26 19 9 11 17 18 17 19 20 33 52 54 56 59 59 59 60 60 60 60 60 59 58 58 59 58 58 58 59 59 59 58 58 59
37 33 25 20 22 27 27 28 31 31 26 22 20 17 15 14 22 28 27 48 53 54 57 58 58 59 59 60 60 60 59 59 58 58 59 58 58 59 59 59 59 59 59 59
36 31 31 29 30 30 29 29 28 28 29 28 22 23 26 29 30 31 31 35 52 54 56 57 57 58 59 59 59 59 58 58 58 58 58 58 58 59 59 59 59 59 59 59
35 28 31 27 30 29 28 30 29 30 30 28 28 27 29 30 32 35 48 45 50 54 55 56 57 58 58 59 59 58 57 57 58 58 58 59 59 59 59 59 59 58 58 60
34 32 27 22 26 29 28 32 30 30 29 27 24 27 31 32 33 37 48 49 50 53 55 55 56 57 58 58 58 57 56 56 57 58 59 59 59 59 59 59 58 57 57 58
29 28 30 25 27 21 28 39 33 31 29 27 28 27 28 33 37 50 51 50 51 53 55 55 56 57 57 57 56 55 55 56 58 59 59 59 59 59 59 59 57 56 56 57
30 29 28 26 27 30 30 38 38 36 35 42 43 44 47 47 50 49 51 52 51 53 54 55 56 56 56 54 53 54 55 57 58 59 59 59 59 59 59 58 57 56 56 56
32 31 30 28 25 24 34 38 39 39 32 43 44 45 46 48 45 45 51 53 54 53 54 54 55 55 54 53 53 52 55 57 57 58 59 59 59 60 59 58 57 56 57 59
33 32 28 28 27 32 36 37 38 34 34 42 45 46 45 46 48 50 53 54 57 54 53 54 54 53 53 52 52 51 55 56 57 58 59 59 59 59 59 58 57 57 59 59
31 31 32 31 29 26 39 36 36 39 44 44 45 46 46 48 52 51 53 55 57 56 54 54 53 52 51 52 51 50 53 55 57 57 58 59 59 60 59 58 57 57 56 56
32 35 32 32 32 39 41 39 43 45 45 44 46 46 47 48 51 51 53 55 56 56 55 53 52 50 51 51 50 49 50 52 56 57 58 59 60 60 59 58 59 58 56 57
37 40 37 36 37 38 40 42 44 45 45 46 47 46 45 48 51 51 52 53 56 57 56 52 50 49 50 50 49 49 49 51 56 57 58 59 59 58 59 59 59 57 57 57
36 37 35 35 37 38 41 40 43 44 46 45 46 46 43 48 50 52 52 55 56 57 58 52 50 50 50 50 49 49 49 53 56 57 58 59 59 59 58 59 58 58 56 56
37 35 35 34 37 38 38 39 43 44 44 45 46 44 42 48 48 51 53 55 56 55 55 54 51 51 50 50 50 49 50 54 57 57 58 59 59 58 58 56 54 41 45 48
Lifted_Index
9 8 7 6 6 6 6 5 5 5 5 4 4 4 5 4 5 5 5 5 6 6 5 5 4 4 4 4 3 3 1 -1 -2 -3 -4 -4 -4 -5 -5 -5 -6 -6 -6 -6
9 8 8 8 7 7 6 6 5 5 5 4 4 5 5 5 5 6 6 6 6 6 5 5 4 4 4 4 3 2 0 -2 -3 -4 -4 -4 -4 -5 -5 -5 -5 -5 -5 -5
10 9 9 9 8 8 7 6 6 6 5 5 4 5 5 6 6 6 6 6 6 6 5 5 5 5 4 3 2 0 -2 -4 -5 -5 -4 -5 -5 -5 -5 -5 -5 -4 -4 -4
10 10 10 10 9 8 8 7 7 7 6 5 5 4 5 5 6 6 6 6 6 6 5 5 5 5 5 3 1 -1 -4 -5 -5 -5 -5 -5 -5 -5 -4 -4 -4 -3 -3 -3
9 9 9 9 9 9 9 9 8 8 7 5 5 4 3 4 4 5 5 6 6 6 5 5 6 5 4 2 -1 -3 -5 -5 -6 -5 -5 -5 -5 -4 -4 -3 -3 -2 -2 -3
7 7 8 9 9 9 9 9 8 7 6 4 5 4 3 3 4 4 5 5 6 6 6 6 6 4 3 0 -2 -4 -5 -5 -5 -5 -5 -5 -4 -4 -3 -2 -2 -2 -2 -2
4 5 6 7 8 9 9 8 6 4 3 3 4 4 3 4 5 5 5 6 6 6 6 6 5 3 1 -0 -3 -4 -5 -5 -5 -5 -4 -4 -3 -3 -2 -2 -2 -2 -2 -2
1 2 4 5 7 8 8 8 5 3 2 3 4 4 4 5 6 6 6 5 5 6 6 6 4 2 0 -1 -3 -4 -5 -5 -4 -4 -3 -2 -2 -2 -1 -1 -1 -1 -1 -1
0 1 2 3 5 6 7 7 6 5 4 3 3 3 4 6 5 5 5 4 5 5 5 5 3 1 -0 -1 -3 -3 -4 -4 -3 -2 -2 -1 -1 -1 -1 -1 -1 -1 -0 -0
1 1 1 2 3 5 5 6 6 6 4 2 1 2 4 5 5 4 3 3 4 5 4 3 2 0 -1 -2 -2 -3 -3 -3 -2 -2 -1 -1 -0 -0 -0 -0 -0 -0 0 0
1 1 1 2 3 4 4 4 5 6 5 2 1 2 5 6 6 4 3 3 4 3 2 1 0 -1 -1 -2 -2 -2 -2 -2 -2 -1 -0 0 0 0 0 0 0 0 0 1
1 1 2 2 2 2 3 4 5 6 6 5 3 3 6 8 7 5 3 3 2 2 1 0 -1 -1 -1 -2 -2 -2 -2 -1 -1 0 1 1 0 0 0 0 0 1 1 1
1 1 1 1 1 1 2 3 4 5 6 6 4 4 7 8 7 5 3 2 1 0 -0 -1 -1 -1 -2 -2 -2 -2 -1 -1 -0 1 1 1 1 1 0 0 0 1 1 1
0 1 1 1 1 1 2 3 3 5 6 6 5 6 8 8 6 5 4 3 1 -0 -0 -1 -2 -2 -1 -2 -2 -1 -1 -0 0 1 1 1 1 1 0 0 0 1 1 1
1 1 1 1 1 1 2 2 3 5 6 7 7 8 8 7 5 5 4 3 1 -0 -0 -1 -2 -2 -1 -2 -1 -1 -1 -0 0 1 1 1 1 1 0 0 0 1 1 1
1 2 2 1 1 1 1 2 3 4 6 8 8 8 9 7 6 4 2 1 1 0 -0 -1 -2 -2 -2 -2 -2 -1 -1 -0 0 1 1 1 1 0 0 0 0 1 1 1
2 2 2 2 1 1 1 1 2 4 5 7 8 8 8 7 5 3 0 -1 -0 -0 -1 -2 -2 -2 -2 -2 -2 -1 -0 0 1 1 1 1 1 0 0 0 0 1 1 1
2 2 2 2 1 1 0 0 1 2 4 6 7 7 6 5 4 1 -1 -1 -1 -1 -2 -2 -2 -2 -2 -2 -2 -1 -0 1 1 1 1 1 0 0 0 0 1 1 1 1
2 2 2 2 1 1 0 -0 0 1 2 3 4 4 4 3 1 -0 -1 -2 -1 -2 -3 -3 -3 -3 -2 -2 -1 -0 0 1 1 1 1 0 0 0 0 0 1 1 1 1
1 2 2 2 1 1 1 1 0 1 1 1 2 2 2 1 1 0 -1 -2 -2 -2 -3 -3 -3 -3 -2 -1 -1 0 1 1 1 1 1 0 0 0 0 0 1 1 2 2
1 1 1 1 1 2 2 1 1 1 0 0 1 1 1 1 1 0 -0 -1 -2 -2 -3 -3 -3 -3 -2 -1 -0 1 1 1 1 1 0 0 0 0 0 0 1 1 1 2
1 1 1 1 2 2 3 3 2 1 1 1 1 1 1 1 0 -0 -0 -1 -2 -2 -2 -3 -3 -3 -2 -1 0 1 1 1 1 1 0 -0 -0 -0 0 0 1 1 1 1
1 2 2 2 2 3 4 4 3 2 2 2 1 1 1 0 -0 -0 -1 -1 -1 -2 -2 -3 -3 -3 -2 -1 0 1 2 1 1 0 0 -0 -0 -0 -0 0 0 0 1 1
2 2 3 3 3 4 5 5 4 3 3 3 2 1 1 0 -0 -1 -1 -1 -1 -2 -3 -3 -3 -3 -2 -1 -0 1 2 2 1 0 -0 -0 -1 -1 -0 -0 -0 -0 0 1
3 3 3 3 4 4 5 5 4 4 4 4 3 2 1 0 -0 -1 -1 -1 -2 -2 -3 -3 -3 -3 -2 -2 -0 1 2 2 1 0 -0 -1 -1 -1 -0 -0 -0 -0 -0 0
3 3 3 3 3 4 6 6 5 4 5 5 3 2 1 1 -0 -1 -1 -2 -2 -3 -3 -3 -3 -3 -2 -2 -1 1 2 2 1 0 -0 -1 -1 -1 -0 -0 -0 -0 -0 -0